�������l�o���
Date,Time,MP-1(��Sv/h),MP-2(��Sv/h),MP-3(��Sv/h),MP-4(��Sv/h),MP-5(��Sv/h),MP-6(��Sv/h),MP-7(��Sv/h),MP-8(��Sv/h),����,����(m/s),���J
2020/03/31,00:00,0.674,0.960,0.647,1.177,0.839,0.387,0.683,0.651,��,3.6,��
2020/03/31,00:10,0.675,0.962,0.648,1.180,0.839,0.389,0.682,0.650,��,3.8,��
2020/03/31,00:20,0.676,0.963,0.648,1.180,0.839,0.389,0.681,0.651,��,3.8,��
2020/03/31,00:30,0.675,0.962,0.647,1.179,0.839,0.388,0.683,0.651,��,3.4,��
2020/03/31,00:40,0.675,0.962,0.649,1.180,0.838,0.388,0.683,0.652,��,3.3,��
2020/03/31,00:50,0.675,0.963,0.648,1.181,0.838,0.388,0.684,0.651,��,2.9,��
2020/03/31,01:00,0.673,0.962,0.649,1.181,0.841,0.389,0.682,0.652,��,3.4,��
2020/03/31,01:10,0.676,0.964,0.648,1.180,0.840,0.389,0.681,0.653,��,2.8,��
2020/03/31,01:20,0.677,0.962,0.647,1.181,0.840,0.390,0.683,0.652,��,3.0,��
2020/03/31,01:30,0.675,0.964,0.647,1.181,0.841,0.389,0.684,0.652,��,2.6,��
2020/03/31,01:40,0.674,0.960,0.646,1.181,0.840,0.390,0.683,0.652,��,2.2,��
2020/03/31,01:50,0.674,0.961,0.650,1.181,0.843,0.389,0.683,0.650,��쐼,2.0,��
2020/03/31,02:00,0.675,0.963,0.646,1.180,0.841,0.389,0.685,0.653,��쐼,1.7,��
2020/03/31,02:10,0.674,0.965,0.647,1.182,0.839,0.389,0.683,0.652,��쐼,1.2,��
2020/03/31,02:20,0.674,0.962,0.647,1.180,0.841,0.389,0.684,0.651,-,CALM,��
2020/03/31,02:30,0.673,0.961,0.648,1.183,0.843,0.387,0.683,0.653,�k,0.6,��
2020/03/31,02:40,0.674,0.964,0.649,1.181,0.842,0.390,0.684,0.651,�k�k��,1.2,��
2020/03/31,02:50,0.676,0.963,0.649,1.180,0.838,0.391,0.684,0.651,�k��,1.5,��
2020/03/31,03:00,0.677,0.963,0.646,1.180,0.840,0.389,0.686,0.650,�k�k��,2.6,��
2020/03/31,03:10,0.675,0.962,0.646,1.183,0.842,0.389,0.683,0.651,�k�k��,2.3,��
2020/03/31,03:20,0.674,0.965,0.648,1.178,0.843,0.389,0.684,0.650,�k,2.6,��
2020/03/31,03:30,0.675,0.963,0.648,1.181,0.840,0.389,0.684,0.651,�k�k��,2.9,��
2020/03/31,03:40,0.676,0.962,0.650,1.182,0.841,0.390,0.684,0.653,�k�k��,2.9,��
2020/03/31,03:50,0.675,0.963,0.648,1.180,0.841,0.390,0.684,0.651,�k�k��,3.8,��
2020/03/31,04:00,0.676,0.964,0.648,1.181,0.842,0.392,0.683,0.651,�k,4.2,��
2020/03/31,04:10,0.675,0.965,0.648,1.181,0.840,0.389,0.684,0.653,�k�k��,4.7,��
2020/03/31,04:20,0.675,0.963,0.648,1.181,0.842,0.389,0.683,0.652,�k�k��,5.5,��
2020/03/31,04:30,0.673,0.965,0.650,1.180,0.840,0.389,0.682,0.652,�k�k��,5.7,��
2020/03/31,04:40,0.676,0.965,0.648,1.181,0.842,0.389,0.684,0.652,�k�k��,5.5,��
2020/03/31,04:50,0.674,0.964,0.648,1.182,0.842,0.389,0.683,0.653,�k�k��,4.9,��
2020/03/31,05:00,0.676,0.963,0.647,1.181,0.841,0.389,0.684,0.652,�k�k��,4.2,��
2020/03/31,05:10,0.674,0.962,0.648,1.182,0.842,0.391,0.684,0.651,�k�k��,4.6,��
2020/03/31,05:20,0.676,0.961,0.647,1.182,0.842,0.390,0.683,0.652,�k�k��,4.8,��
2020/03/31,05:30,0.674,0.962,0.647,1.181,0.840,0.389,0.682,0.651,�k,3.8,��
2020/03/31,05:40,0.675,0.963,0.648,1.182,0.842,0.389,0.682,0.650,�k�k��,3.8,��
2020/03/31,05:50,0.677,0.961,0.647,1.182,0.841,0.389,0.683,0.652,�k�k��,3.4,��
2020/03/31,06:00,0.675,0.961,0.648,1.182,0.843,0.389,0.681,0.653,�k�k��,3.3,��
2020/03/31,06:10,0.675,0.963,0.648,1.181,0.843,0.389,0.683,0.651,�k�k��,3.0,��
2020/03/31,06:20,0.674,0.965,0.648,1.182,0.839,0.390,0.683,0.651,�k�k��,3.0,��
2020/03/31,06:30,0.674,0.965,0.650,1.184,0.841,0.390,0.685,0.653,�k,2.5,��
2020/03/31,06:40,0.675,0.962,0.648,1.183,0.841,0.388,0.684,0.652,�k,2.0,��
2020/03/31,06:50,0.675,0.964,0.649,1.183,0.841,0.391,0.684,0.652,�k,2.0,��
2020/03/31,07:00,0.675,0.963,0.648,1.184,0.840,0.390,0.684,0.652,�k�k��,3.3,��
2020/03/31,07:10,0.675,0.964,0.647,1.181,0.841,0.389,0.686,0.652,�k��,2.5,��
2020/03/31,07:20,0.676,0.966,0.649,1.185,0.841,0.388,0.685,0.652,�k��,2.3,��
2020/03/31,07:30,0.676,0.965,0.648,1.181,0.840,0.391,0.684,0.652,�k�k��,2.9,��
2020/03/31,07:40,0.676,0.964,0.648,1.183,0.841,0.391,0.686,0.653,�k��,2.8,��
2020/03/31,07:50,0.678,0.965,0.650,1.183,0.843,0.390,0.686,0.653,�k��,2.6,��
2020/03/31,08:00,0.676,0.962,0.649,1.185,0.842,0.388,0.686,0.652,�k�k��,1.9,��
2020/03/31,08:10,0.679,0.961,0.648,1.182,0.843,0.390,0.686,0.651,�k�k��,1.9,��
2020/03/31,08:20,0.678,0.960,0.649,1.182,0.842,0.390,0.687,0.654,�k�k��,1.7,��
2020/03/31,08:30,0.680,0.960,0.648,1.185,0.843,0.390,0.686,0.654,�k,1.7,��
2020/03/31,08:40,0.680,0.959,0.647,1.183,0.844,0.390,0.683,0.654,�k��,2.2,��
2020/03/31,08:50,0.676,0.959,0.648,1.184,0.843,0.390,0.685,0.655,���k��,2.3,��
2020/03/31,09:00,0.678,0.961,0.651,1.183,0.843,0.391,0.683,0.653,���k��,2.6,��
2020/03/31,09:10,0.680,0.959,0.650,1.182,0.845,0.390,0.683,0.653,�k��,3.0,��
2020/03/31,09:20,0.678,0.959,0.648,1.184,0.846,0.388,0.684,0.652,�k�k��,3.2,��
2020/03/31,09:30,0.678,0.959,0.650,1.183,0.845,0.390,0.683,0.651,�k��,3.3,��
2020/03/31,09:40,0.677,0.956,0.652,1.184,0.845,0.388,0.684,0.651,�k��,3.2,��
2020/03/31,09:50,0.679,0.958,0.650,1.184,0.847,0.389,0.687,0.651,�k��,3.8,��
2020/03/31,10:00,0.680,0.961,0.650,1.185,0.846,0.390,0.684,0.651,�k��,4.1,��
2020/03/31,10:10,0.678,0.958,0.650,1.184,0.847,0.390,0.684,0.652,�k��,4.2,��
2020/03/31,10:20,0.679,0.962,0.653,1.184,0.847,0.391,0.684,0.651,�k��,3.7,��
2020/03/31,10:30,0.679,0.963,0.654,1.183,0.847,0.390,0.684,0.650,�k��,3.3,��
2020/03/31,10:40,0.680,0.964,0.653,1.184,0.847,0.391,0.683,0.651,�k��,3.1,��
2020/03/31,10:50,0.683,0.967,0.654,1.185,0.848,0.392,0.685,0.651,�k��,3.3,��
2020/03/31,11:00,0.679,0.966,0.653,1.186,0.846,0.389,0.684,0.652,���k��,2.8,��
2020/03/31,11:10,0.680,0.964,0.655,1.185,0.847,0.390,0.683,0.651,�k��,3.1,��
2020/03/31,11:20,0.682,0.965,0.654,1.184,0.847,0.390,0.685,0.651,�k��,3.3,��
2020/03/31,11:30,0.678,0.967,0.654,1.188,0.848,0.388,0.684,0.649,��,2.5,��
2020/03/31,11:40,0.682,0.966,0.655,1.186,0.847,0.390,0.685,0.651,��,2.3,��
2020/03/31,11:50,0.681,0.967,0.653,1.184,0.849,0.390,0.686,0.651,��,3.0,��
2020/03/31,12:00,0.683,0.969,0.653,1.185,0.848,0.392,0.686,0.651,���k��,2.9,��
2020/03/31,12:10,0.680,0.971,0.656,1.184,0.848,0.390,0.683,0.651,��,3.0,��
2020/03/31,12:20,0.680,0.971,0.656,1.185,0.847,0.391,0.685,0.650,��,2.5,��
2020/03/31,12:30,0.681,0.970,0.654,1.187,0.847,0.391,0.684,0.651,��,3.1,��
2020/03/31,12:40,0.681,0.974,0.654,1.186,0.847,0.392,0.685,0.652,���쓌,3.0,��
2020/03/31,12:50,0.682,0.970,0.654,1.187,0.848,0.391,0.685,0.652,���쓌,3.3,��
2020/03/31,13:00,0.682,0.971,0.654,1.187,0.848,0.393,0.686,0.653,��,2.6,��
2020/03/31,13:10,0.683,0.971,0.652,1.188,0.851,0.391,0.686,0.652,���쓌,2.3,��
2020/03/31,13:20,0.681,0.971,0.654,1.188,0.850,0.392,0.686,0.654,��,2.8,��
2020/03/31,13:30,0.683,0.971,0.654,1.187,0.852,0.393,0.687,0.652,���쓌,2.6,��
2020/03/31,13:40,0.681,0.971,0.653,1.185,0.851,0.394,0.687,0.653,��,2.3,��
2020/03/31,13:50,0.680,0.971,0.655,1.188,0.852,0.392,0.685,0.653,���쓌,2.3,��
2020/03/31,14:00,0.682,0.971,0.654,1.187,0.852,0.393,0.687,0.652,���쓌,2.0,��
2020/03/31,14:10,0.681,0.971,0.653,1.187,0.851,0.393,0.685,0.652,��,1.7,��
2020/03/31,14:20,0.681,0.972,0.654,1.186,0.849,0.394,0.686,0.652,��,2.0,��
2020/03/31,14:30,0.682,0.973,0.654,1.188,0.852,0.392,0.686,0.653,���쓌,1.9,��
2020/03/31,14:40,0.680,0.971,0.653,1.188,0.851,0.394,0.686,0.654,���쓌,2.8,��
2020/03/31,14:50,0.681,0.970,0.655,1.186,0.850,0.391,0.686,0.651,���쓌,2.9,��
2020/03/31,15:00,0.683,0.971,0.655,1.188,0.850,0.392,0.687,0.652,���쓌,3.8,��
2020/03/31,15:10,0.682,0.976,0.658,1.187,0.851,0.393,0.687,0.652,���쓌,2.6,��
2020/03/31,15:20,0.682,0.975,0.656,1.185,0.852,0.394,0.686,0.653,���쓌,3.3,��
2020/03/31,15:30,0.684,0.979,0.658,1.188,0.852,0.392,0.687,0.653,��,2.3,��
2020/03/31,15:40,0.685,0.982,0.658,1.188,0.851,0.395,0.685,0.653,��쓌,3.1,��
2020/03/31,15:50,0.683,0.984,0.659,1.188,0.852,0.392,0.687,0.653,��,2.5,��
2020/03/31,16:00,0.684,0.979,0.659,1.188,0.854,0.394,0.686,0.654,��,2.3,��
2020/03/31,16:10,0.683,0.982,0.659,1.190,0.852,0.394,0.687,0.651,��,2.3,��
2020/03/31,16:20,0.684,0.982,0.656,1.189,0.850,0.392,0.687,0.652,��쓌,2.6,��
2020/03/31,16:30,0.686,0.983,0.656,1.187,0.850,0.393,0.686,0.653,�쓌,2.2,��
2020/03/31,16:40,0.684,0.982,0.658,1.189,0.852,0.393,0.686,0.654,��쓌,2.2,��
2020/03/31,16:50,0.685,0.982,0.659,1.188,0.853,0.393,0.686,0.654,��,2.9,��
2020/03/31,17:00,0.685,0.982,0.658,1.190,0.853,0.392,0.686,0.653,��쓌,2.2,��
2020/03/31,17:10,0.685,0.984,0.659,1.187,0.853,0.394,0.686,0.654,��쓌,2.3,��
2020/03/31,17:20,0.685,0.983,0.659,1.188,0.856,0.393,0.684,0.656,��쓌,2.6,��
2020/03/31,17:30,0.685,0.985,0.658,1.190,0.854,0.394,0.686,0.655,��쓌,3.9,��
2020/03/31,17:40,0.684,0.983,0.659,1.190,0.854,0.395,0.685,0.655,��쓌,4.2,�L
2020/03/31,17:50,0.684,0.983,0.657,1.189,0.857,0.393,0.688,0.656,��쓌,4.1,��
2020/03/31,18:00,0.685,0.984,0.657,1.190,0.855,0.394,0.688,0.656,��쓌,4.0,��
2020/03/31,18:10,0.685,0.983,0.658,1.189,0.854,0.393,0.686,0.657,��쓌,3.6,�L
2020/03/31,18:20,0.686,0.983,0.659,1.189,0.858,0.391,0.688,0.656,��쓌,3.1,��
2020/03/31,18:30,0.684,0.983,0.660,1.190,0.854,0.393,0.688,0.656,��쓌,3.0,��
2020/03/31,18:40,0.685,0.985,0.659,1.187,0.857,0.394,0.687,0.657,��,3.3,�L
2020/03/31,18:50,0.686,0.982,0.659,1.191,0.858,0.394,0.687,0.655,��쓌,4.0,�L
2020/03/31,19:00,0.685,0.984,0.658,1.191,0.858,0.393,0.687,0.655,��,3.8,�L
2020/03/31,19:10,0.686,0.983,0.658,1.191,0.856,0.394,0.687,0.656,��,3.7,��
2020/03/31,19:20,0.686,0.982,0.660,1.192,0.858,0.393,0.688,0.656,��쓌,4.3,��
2020/03/31,19:30,0.686,0.985,0.658,1.190,0.858,0.394,0.688,0.656,��,3.5,��
2020/03/31,19:40,0.684,0.983,0.658,1.191,0.856,0.394,0.686,0.656,��,3.3,��
2020/03/31,19:50,0.685,0.984,0.658,1.189,0.855,0.393,0.686,0.656,��,2.8,��
2020/03/31,20:00,0.684,0.985,0.660,1.191,0.855,0.396,0.687,0.656,��쓌,3.4,��
2020/03/31,20:10,0.684,0.984,0.657,1.191,0.856,0.395,0.686,0.655,��쓌,2.8,�L
2020/03/31,20:20,0.686,0.986,0.660,1.189,0.855,0.396,0.688,0.656,��쓌,2.6,�L
2020/03/31,20:30,0.685,0.982,0.660,1.188,0.855,0.393,0.687,0.654,��쓌,2.8,�L
2020/03/31,20:40,0.684,0.981,0.657,1.188,0.855,0.394,0.686,0.657,��쓌,2.8,�L
2020/03/31,20:50,0.684,0.982,0.659,1.189,0.856,0.392,0.688,0.656,��쓌,2.5,��
2020/03/31,21:00,0.685,0.982,0.657,1.190,0.855,0.394,0.687,0.656,��,1.5,��
2020/03/31,21:10,0.685,0.982,0.658,1.191,0.855,0.393,0.687,0.656,��,1.5,��
2020/03/31,21:20,0.685,0.983,0.659,1.187,0.854,0.393,0.687,0.655,��쓌,2.0,��
2020/03/31,21:30,0.685,0.982,0.658,1.191,0.853,0.395,0.688,0.656,��쓌,3.2,��
2020/03/31,21:40,0.683,0.981,0.662,1.189,0.854,0.393,0.688,0.656,��,3.8,��
2020/03/31,21:50,0.685,0.981,0.656,1.187,0.853,0.394,0.688,0.656,��,2.9,��
2020/03/31,22:00,0.684,0.982,0.656,1.187,0.854,0.395,0.690,0.656,��,2.5,��
2020/03/31,22:10,0.685,0.983,0.659,1.190,0.855,0.392,0.688,0.656,��,2.0,��
2020/03/31,22:20,0.684,0.983,0.660,1.188,0.856,0.394,0.688,0.656,��쓌,1.9,��
2020/03/31,22:30,0.685,0.980,0.658,1.189,0.855,0.392,0.688,0.655,��,2.3,��
2020/03/31,22:40,0.684,0.981,0.656,1.190,0.854,0.393,0.688,0.655,��쓌,3.3,��
2020/03/31,22:50,0.684,0.981,0.658,1.187,0.855,0.394,0.687,0.656,��쓌,3.8,��
2020/03/31,23:00,0.685,0.981,0.657,1.189,0.857,0.396,0.686,0.655,��,3.4,��
2020/03/31,23:10,0.684,0.980,0.658,1.186,0.856,0.393,0.687,0.656,��쓌,4.4,��
2020/03/31,23:20,0.684,0.981,0.657,1.190,0.855,0.393,0.689,0.657,��쓌,5.0,��
2020/03/31,23:30,0.685,0.982,0.656,1.189,0.856,0.393,0.689,0.655,��쓌,5.3,��
2020/03/31,23:40,0.685,0.981,0.658,1.186,0.857,0.395,0.688,0.656,��쓌,6.7,��
2020/03/31,23:50,0.684,0.982,0.659,1.188,0.855,0.392,0.689,0.655,��,7.5,��
